DELTA 1 DEB, 2775

Orbit data source: Space-Track

DELTA 1 DEB, 2775 is space debris in SSO originally from a launch on Sun, 02 Oct 1966 UTC launched from the Air Force Western Test Range (AFWTR). Debris objects in space refer to the collection of defunct objects orbiting the Earth. Examples of debris include non-operational satellites, rocket bodies, and fragments generated from explosions, collisions, or faulty payload assembly.

Loading next visibility...
DELTA 1 DEB details
Identifier
2775, 1966-087D
Orbit
SSO
Last TLE update16 hours ago
Origin
Flag of USGSFC (US)
ManufacturerUnknown
MissionSpacecraft
Bus & MotorUnknown
Mass1 kg wet, 1 kg dry
Launch date (UTC)
1966-10-02 (58 years ago)
Launch vehicleUnknown
Launch site
Air Force Western Test Range (AFWTR)
Object type
Payload
Rocket body
Debris
Shape & HBRCyl + 1 Cable, 3.5 m
Radar Cross Section3.500 m², Small (<0.1 m²)

Expand to show TLE details & history

TLE from 16 hours ago
0 DELTA 1 DEB
1 02775U 66087D   24356.59966363 -.00000025  00000-0  81667-4 0  9995
2 02775 100.9414  15.1331 0125028 164.1450 318.7951 12.71672978701366
Epoch: 2024-12-21T14:23Z
Definitive object data (Epoch: 2024-12-21T14:23:30.937Z)
Latitude56.47928°
Longitude-94.51345°
Altitude1,311.996 km
Speed7.24 km/s
True Right ascension14h 08m 03s
True Declination56° 19' 56"
Sunlit
Object was in daylight at TLE epoch
Visualization TLE readout
Latitude-64.11984°
Longitude-134.12814°
Altitude1,387.193 km
Speed7.171 km/s
Apparent Right ascension14h 59m 26s
Apparent Declination-60° 49' 18"
Sunlit
Object is in daylight
Visualization observer readout
Local Sidereal Time05:12:52
Azimuth146.717° SSE
Elevation-60.758°
Doppler factor1
Orbital elements
Apogee altitude1,469.51 km
Perigee altitude1,275.698 km
Semi-major axis7,750.741 km
Eccentricity0.0125028
Inclination100.9414°
RAAN15.1331°
Arg. of periapsis164.145°
True anomaly317.84011°
Mean anomaly318.7951°
Eccentric anomaly318.31873°
Mean motion3.18074 °/min
BSTAR0.000081667
Orbital period113.18 mins
Loading maneuver chart data...
Loading historical data...
Loading historical data...
Loading historical data...
Loading historical data...
Loading historical data...
Loading historical data...
Loading historical data...

DELTA 1 DEB Visibility forecast

Observer location: undefined°, undefined

Span
Click to sort rows by Start time (UTC) header in descending order
Start Az.
Max El. time (UTC)
Max El. Az.
Max El.
End time (UTC)
End Az.
10 mins2024-12-22 13:04:09.832Z46.979° ENE2024-12-22 13:09:09.832Z93.456° ESE22.322°2024-12-22 13:14:09.832Z140.655° SSE
13 mins2024-12-22 14:55:09.832Z7.446° NNE2024-12-22 15:01:09.832Z286.584° WNW41.787°2024-12-22 15:08:09.832Z213.261° SW
4 mins2024-12-22 16:49:09.832Z325.757° NNW2024-12-22 16:51:09.832Z309.312° NW12.273°2024-12-22 16:53:09.832Z293.162° NW
11 mins2024-12-22 23:54:09.832Z107.581° ESE2024-12-22 23:59:09.832Z60.433° ENE26.963°2024-12-23 00:05:09.832Z5.928° NNE
14 mins2024-12-23 01:43:09.832Z179.253° S2024-12-23 01:50:09.832Z260.52° W41.419°2024-12-23 01:57:09.832Z335.338° NNW
|